Regional Weather Roundup
Issued by NWS Charleston, WV

Home | Current Version | Previous Version | Text Only | Print | Product List | Glossary On
Versions: 1 2 3 4 5 6 7 8 9 10 11 12 13 14 15 16 17 18 19 20 21 22 23 24 25 26 27 28 29 30 31 32 33 34 35 36 37 38 39 40 41 42 43 44 45 46 47 48 49 50
000
ASUS41 KRLX 261110
RWRRLX
West Virginia Regional Weather Roundup
National Weather Service Charleston WV
700 AM EDT SUN APR 26 2015

Note: "fair" indicates few or no clouds below 12,000 feet with no
significant weather and/or obstructions to visibility.

WVZ003-261200-
Northern Panhandle of West Virginia

CITY           SKY/WX    TMP DP  RH WIND       PRES   REMARKS
WHEELING       CLEAR     40  27  59 N7        29.71R
$$

WVZ009-261200-
Northwest West Virginia

CITY           SKY/WX    TMP DP  RH WIND       PRES   REMARKS
PARKERSBURG    MOCLDY    43  37  79 N5        29.72R
$$

WVZ006-261200-
Western West Virginia

CITY           SKY/WX    TMP DP  RH WIND       PRES   REMARKS
HUNTINGTON     MOCLDY    42  41  96 N6        29.70R
$$

WVZ015-261200-
West Central West Virginia

CITY           SKY/WX    TMP DP  RH WIND       PRES   REMARKS
CHARLESTON     CLOUDY    43  40  89 N3        29.67R
$$

WVZ022-031-261200-
North Central West Virginia

CITY           SKY/WX    TMP DP  RH WIND       PRES   REMARKS
CLARKSBURG     CLOUDY    41  37  86 NE14      29.67R
MORGANTOWN     MOCLDY    42  33  70 N6        29.69R
$$

WVZ025-035-042-045-261200-
Southern West Virginia

CITY           SKY/WX    TMP DP  RH WIND       PRES   REMARKS
BECKLEY        LGT RAIN  44  42  93 N3        29.62R FOG
LOGAN          CLOUDY    43  43 100 VRB5      29.61R FOG
BLUEFIELD      LGT RAIN  46  42  86 N6        29.63R FOG
LEWISBURG      NOT AVBL
$$

WVZ047-261200-
Northern Mountains of West Virginia

CITY           SKY/WX    TMP DP  RH WIND       PRES   REMARKS
ELKINS         CLOUDY    41  38  89 CALM      29.64R
$$

WVZ052-261200-
Eastern Panhandle of West Virginia

CITY           SKY/WX    TMP DP  RH WIND       PRES   REMARKS
MARTINSBURG    CLOUDY    41  39  93 N3        29.71R FOG
PETERSBURG     CLOUDY    41  36  83 CALM      29.72R
$$


USA.gov is the U.S. government's official web portal to all federal, state and local government web resources and services.